Tracking 22438 objects as of 24-Feb-2021
HD Live streaming from Space Station
objects crossing your sky now

FREGAT DEB

Track FREGAT DEB now!
10-day predictions


NORAD ID: 45887
Int'l Code: 2011-037DG
Perigee: 542.3 km
Apogee: 3,520.7 km
Inclination: 51.6 °
Period: 127.8 minutes
Semi major axis: 8402 km
RCS: Unknown
Launch date: July 18, 2011
Source: Commonwealth of Independent States (former USSR) (CIS)
Launch site: TYURATAM MISSILE AND SPACE COMPLEX (TTMTR)

Note: This is SATELLITE DEBRIS
aabbcc
Your satellite tracking list
Your tracking list is empty




NASA's NSSDC Master Catalog

Two Line Element Set (TLE):
1 45887U 11037DG  20199.38850409 +.00064178 +00000+0 +34363-1 0  9997
2 45887  51.5606 279.3417 1772326 121.2654 257.3921 11.27174827000895
Source of the keplerian elements: AFSPC